Time,TemperatureF,DewpointF,PressureIn,WindDirection,WindDirectionDegrees,WindSpeedMPH,WindSpeedGustMPH,Humidity,HourlyPrecipIn,Conditions,Clouds,dailyrainin,SoftwareType,DateUTC
2013-01-14 00:03:00,10.6,5.1,30.42,WSW,238,4.0,6.0,78,0.00,,SKC,0.00,VWS V14.01,2013-01-14 06:03:00,
2013-01-14 00:07:00,10.5,5.0,30.42,WSW,241,6.0,6.0,78,0.00,,SKC,0.00,VWS V14.01,2013-01-14 06:07:00,
2013-01-14 00:11:00,10.6,5.1,30.42,SW,229,5.0,6.0,78,0.00,,SKC,0.00,VWS V14.01,2013-01-14 06:11:00,
2013-01-14 00:15:00,10.5,5.0,30.42,WSW,238,4.0,6.0,78,0.00,,SKC,0.00,VWS V14.01,2013-01-14 06:15:00,
2013-01-14 00:19:00,10.4,4.9,30.43,SW,235,4.0,6.0,78,0.00,,SKC,0.00,VWS V14.01,2013-01-14 06:19:00,
2013-01-14 00:27:00,10.7,4.9,30.43,SW,229,5.0,6.0,77,0.00,,SKC,0.00,VWS V14.01,2013-01-14 06:27:00,
2013-01-14 00:35:00,10.8,5.0,30.43,WSW,256,3.0,6.0,77,0.00,,SKC,0.00,VWS V14.01,2013-01-14 06:35:00,
2013-01-14 00:39:00,10.6,4.8,30.42,WSW,256,2.0,6.0,77,0.00,,SKC,0.00,VWS V14.01,2013-01-14 06:39:00,
2013-01-14 00:44:00,10.5,4.7,30.42,WSW,257,4.0,6.0,77,0.00,,SKC,0.00,VWS V14.01,2013-01-14 06:44:00,
2013-01-14 00:48:00,10.3,4.5,30.42,WSW,252,5.0,6.0,77,0.00,,SKC,0.00,VWS V14.01,2013-01-14 06:48:00,
2013-01-14 00:52:00,10.2,4.4,30.42,WSW,258,6.0,6.0,77,0.00,,SKC,0.00,VWS V14.01,2013-01-14 06:52:00,
2013-01-14 00:56:00,10.1,4.6,30.42,WSW,248,3.0,6.0,78,0.00,,SKC,0.00,VWS V14.01,2013-01-14 06:56:00,
2013-01-14 01:04:00,10.3,4.5,30.43,WSW,257,6.0,6.0,77,0.00,,SKC,0.00,VWS V14.01,2013-01-14 07:04:00,
2013-01-14 01:08:00,10.2,4.4,30.43,WSW,246,4.0,6.0,77,0.00,,SKC,0.00,VWS V14.01,2013-01-14 07:08:00,
2013-01-14 01:16:00,9.5,3.8,30.43,South,182,2.0,6.0,77,0.00,,SKC,0.00,VWS V14.01,2013-01-14 07:16:00,
2013-01-14 01:24:00,8.3,3.4,30.43,South,170,3.0,6.0,80,0.00,,SKC,0.00,VWS V14.01,2013-01-14 07:24:00,
2013-01-14 01:28:00,8.4,3.5,30.43,SSW,213,0.0,6.0,80,0.00,,SKC,0.00,VWS V14.01,2013-01-14 07:28:00,
2013-01-14 01:36:00,8.8,3.9,30.43,SW,225,0.0,4.0,80,0.00,,SKC,0.00,VWS V14.01,2013-01-14 07:36:00,
2013-01-14 01:44:00,8.7,3.8,30.44,SW,225,0.0,4.0,80,0.00,,SKC,0.00,VWS V14.01,2013-01-14 07:44:00,
2013-01-14 01:52:00,8.2,3.3,30.44,SW,225,0.0,4.0,80,0.00,,SKC,0.00,VWS V14.01,2013-01-14 07:52:00,
2013-01-14 01:56:00,8.2,3.6,30.44,SW,225,0.0,4.0,81,0.00,,SKC,0.00,VWS V14.01,2013-01-14 07:56:00,
2013-01-14 01:59:00,8.3,3.7,30.44,SW,225,0.0,4.0,81,0.00,,SKC,0.00,VWS V14.01,2013-01-14 07:59:00,
2013-01-14 02:00:00,8.3,3.7,30.44,SW,225,0.0,0.0,81,0.00,,SKC,0.00,VWS V14.01,2013-01-14 08:00:00,
2013-01-14 02:08:00,8.5,3.9,30.45,SW,222,0.0,4.0,81,0.00,,SKC,0.00,VWS V14.01,2013-01-14 08:08:00,
2013-01-14 02:12:00,8.4,3.8,30.45,SW,222,0.0,4.0,81,0.00,,SKC,0.00,VWS V14.01,2013-01-14 08:12:00,
2013-01-14 02:16:00,8.1,3.2,30.45,SW,221,0.0,4.0,80,0.00,,SKC,0.00,VWS V14.01,2013-01-14 08:16:00,
2013-01-14 02:20:00,8.2,3.8,30.45,SW,221,0.0,4.0,82,0.00,,SKC,0.00,VWS V14.01,2013-01-14 08:20:00,
2013-01-14 02:24:00,8.5,4.2,30.45,SW,221,0.0,4.0,82,0.00,,SKC,0.00,VWS V14.01,2013-01-14 08:24:00,
2013-01-14 02:28:00,8.6,4.0,30.46,SW,221,0.0,4.0,81,0.00,,SKC,0.00,VWS V14.01,2013-01-14 08:28:00,
2013-01-14 02:32:00,8.5,3.9,30.46,SW,221,0.0,0.0,81,0.00,,SKC,0.00,VWS V14.01,2013-01-14 08:32:00,
2013-01-14 02:40:00,8.6,4.0,30.46,SW,216,4.0,4.0,81,0.00,,SKC,0.00,VWS V14.01,2013-01-14 08:40:00,
2013-01-14 02:48:00,8.4,3.8,30.47,SW,216,4.0,5.0,81,0.00,,SKC,0.00,VWS V14.01,2013-01-14 08:48:00,
2013-01-14 02:52:00,8.5,4.2,30.47,SW,215,4.0,5.0,82,0.00,,SKC,0.00,VWS V14.01,2013-01-14 08:52:00,
2013-01-14 02:59:00,8.8,4.4,30.47,SW,215,4.0,6.0,82,0.00,,SKC,0.00,VWS V14.01,2013-01-14 08:59:00,
2013-01-14 03:08:00,8.8,4.4,30.47,SW,215,4.0,5.0,82,0.00,,SKC,0.00,VWS V14.01,2013-01-14 09:08:00,
2013-01-14 03:16:00,9.0,4.4,30.47,SW,215,3.0,6.0,81,0.00,,SKC,0.00,VWS V14.01,2013-01-14 09:16:00,
2013-01-14 03:20:00,8.8,4.2,30.47,SW,215,1.0,6.0,81,0.00,,SKC,0.00,VWS V14.01,2013-01-14 09:20:00,
2013-01-14 03:24:00,8.6,4.0,30.47,SW,215,0.0,6.0,81,0.00,,SKC,0.00,VWS V14.01,2013-01-14 09:24:00,
2013-01-14 03:29:00,8.5,3.9,30.47,SW,215,2.0,6.0,81,0.00,,SKC,0.00,VWS V14.01,2013-01-14 09:29:00,
2013-01-14 03:32:00,8.5,3.9,30.47,SW,215,3.0,3.0,81,0.00,,SKC,0.00,VWS V14.01,2013-01-14 09:32:00,
2013-01-14 03:36:00,8.3,3.7,30.47,SW,215,3.0,6.0,81,0.00,,SKC,0.00,VWS V14.01,2013-01-14 09:36:00,
2013-01-14 03:44:00,8.3,3.7,30.47,SW,216,1.0,6.0,81,0.00,,SKC,0.00,VWS V14.01,2013-01-14 09:44:00,
2013-01-14 03:48:00,8.4,3.8,30.47,SSW,213,1.0,6.0,81,0.00,,SKC,0.00,VWS V14.01,2013-01-14 09:48:00,
2013-01-14 03:56:00,8.6,4.0,30.47,SSW,207,2.0,6.0,81,0.00,,SKC,0.00,VWS V14.01,2013-01-14 09:56:00,
2013-01-14 04:00:00,8.3,3.4,30.47,SSW,207,3.0,4.0,80,0.00,,SKC,0.00,VWS V14.01,2013-01-14 10:00:00,
2013-01-14 04:08:00,7.8,3.2,30.47,SSW,207,0.0,4.0,81,0.00,,SKC,0.00,VWS V14.01,2013-01-14 10:08:00,
2013-01-14 04:16:00,7.4,2.8,30.47,SSW,196,0.0,4.0,81,0.00,,SKC,0.00,VWS V14.01,2013-01-14 10:16:00,
2013-01-14 04:25:00,7.2,2.9,30.46,SSW,196,0.0,4.0,82,0.00,,SKC,0.00,VWS V14.01,2013-01-14 10:25:00,
2013-01-14 04:29:00,7.5,3.4,30.46,SSW,196,0.0,4.0,83,0.00,,SKC,0.00,VWS V14.01,2013-01-14 10:29:00,
2013-01-14 04:33:00,7.7,3.6,30.46,SSW,196,0.0,0.0,83,0.00,,SKC,0.00,VWS V14.01,2013-01-14 10:33:00,
2013-01-14 04:41:00,7.7,3.6,30.46,SSW,196,0.0,0.0,83,0.00,,SKC,0.00,VWS V14.01,2013-01-14 10:41:00,
2013-01-14 04:49:00,7.9,3.6,30.46,SSW,204,1.0,4.0,82,0.00,,SKC,0.00,VWS V14.01,2013-01-14 10:49:00,
2013-01-14 04:57:00,7.5,3.2,30.46,South,187,2.0,4.0,82,0.00,,SKC,0.00,VWS V14.01,2013-01-14 10:57:00,
2013-01-14 04:59:00,7.3,3.0,30.47,South,187,0.0,4.0,82,0.00,,SKC,0.00,VWS V14.01,2013-01-14 10:59:00,
2013-01-14 05:05:00,6.9,2.6,30.46,South,187,0.0,0.0,82,0.00,,SKC,0.00,VWS V14.01,2013-01-14 11:05:00,
2013-01-14 05:13:00,7.0,3.2,30.46,SSW,192,0.0,0.0,84,0.00,,SKC,0.00,VWS V14.01,2013-01-14 11:13:00,
2013-01-14 05:17:00,7.3,3.8,30.46,SSW,192,0.0,2.0,85,0.00,,SKC,0.00,VWS V14.01,2013-01-14 11:17:00,
2013-01-14 05:25:00,7.4,3.6,30.46,SSW,192,0.0,2.0,84,0.00,,SKC,0.00,VWS V14.01,2013-01-14 11:25:00,
2013-01-14 05:33:00,7.3,3.2,30.47,SSW,192,2.0,4.0,83,0.00,,SKC,0.00,VWS V14.01,2013-01-14 11:33:00,
2013-01-14 05:41:00,7.2,3.4,30.47,SSW,192,0.0,4.0,84,0.00,,SKC,0.00,VWS V14.01,2013-01-14 11:41:00,
2013-01-14 05:49:00,7.2,3.4,30.47,SSW,192,0.0,4.0,84,0.00,,SKC,0.00,VWS V14.01,2013-01-14 11:49:00,
2013-01-14 05:53:00,7.2,3.4,30.47,SSW,192,2.0,4.0,84,0.00,,SKC,0.00,VWS V14.01,2013-01-14 11:53:00,
2013-01-14 05:57:00,6.7,2.6,30.47,SSW,192,0.0,4.0,83,0.00,,SKC,0.00,VWS V14.01,2013-01-14 11:57:00,
2013-01-14 05:59:00,6.2,1.9,30.47,SSW,192,3.0,4.0,82,0.00,,SKC,0.00,VWS V14.01,2013-01-14 11:59:00,
2013-01-14 06:05:00,6.1,2.3,30.48,SSW,192,5.0,6.0,84,0.00,,SKC,0.00,VWS V14.01,2013-01-14 12:05:00,
2013-01-14 06:09:00,6.6,3.1,30.48,SSW,192,4.0,6.0,85,0.00,,SKC,0.00,VWS V14.01,2013-01-14 12:09:00,
2013-01-14 06:13:00,6.9,3.6,30.48,SSW,211,2.0,6.0,86,0.00,,SKC,0.00,VWS V14.01,2013-01-14 12:13:00,
2013-01-14 06:21:00,7.4,4.1,30.48,SSW,213,4.0,6.0,86,0.00,,SKC,0.00,VWS V14.01,2013-01-14 12:21:00,
2013-01-14 06:29:00,7.2,3.7,30.49,SSW,208,4.0,6.0,85,0.00,,SKC,0.00,VWS V14.01,2013-01-14 12:29:00,
2013-01-14 06:37:00,7.2,3.7,30.49,SSW,213,5.0,6.0,85,0.00,,SKC,0.00,VWS V14.01,2013-01-14 12:37:00,
2013-01-14 06:41:00,7.2,3.7,30.49,SSW,213,5.0,7.0,85,0.00,,SKC,0.00,VWS V14.01,2013-01-14 12:41:00,
2013-01-14 06:45:00,7.4,3.8,30.49,SW,223,3.0,7.0,85,0.00,,SKC,0.00,VWS V14.01,2013-01-14 12:45:00,
2013-01-14 06:49:00,7.6,4.0,30.49,SW,233,3.0,7.0,85,0.00,,SKC,0.00,VWS V14.01,2013-01-14 12:49:00,
2013-01-14 06:57:00,7.7,3.9,30.50,SW,221,3.0,7.0,84,0.00,,SKC,0.00,VWS V14.01,2013-01-14 12:57:00,
2013-01-14 06:59:00,7.6,4.0,30.50,SW,226,2.0,7.0,85,0.00,,SKC,0.00,VWS V14.01,2013-01-14 12:59:00,
2013-01-14 07:01:00,7.6,4.0,30.50,SW,225,2.0,5.0,85,0.00,,SKC,0.00,VWS V14.01,2013-01-14 13:01:00,
2013-01-14 07:09:00,7.6,4.0,30.51,SW,229,3.0,6.0,85,0.00,,SKC,0.00,VWS V14.01,2013-01-14 13:09:00,
2013-01-14 07:13:00,7.6,4.0,30.51,WSW,243,5.0,6.0,85,0.00,,SKC,0.00,VWS V14.01,2013-01-14 13:13:00,
2013-01-14 07:17:00,7.6,4.0,30.51,SW,230,3.0,6.0,85,0.00,,SKC,0.00,VWS V14.01,2013-01-14 13:17:00,
2013-01-14 07:25:00,7.5,3.7,30.51,SSW,202,0.0,6.0,84,0.00,,SKC,0.00,VWS V14.01,2013-01-14 13:25:00,
2013-01-14 07:29:00,7.4,3.6,30.51,SW,230,0.0,6.0,84,0.00,,SKC,0.00,VWS V14.01,2013-01-14 13:29:00,
2013-01-14 07:33:00,7.3,3.5,30.52,SW,233,0.0,0.0,84,0.00,,SKC,0.00,VWS V14.01,2013-01-14 13:33:00,
2013-01-14 07:37:00,7.2,3.4,30.51,SW,214,4.0,4.0,84,0.00,,SKC,0.00,VWS V14.01,2013-01-14 13:37:00,
2013-01-14 07:41:00,7.1,3.3,30.52,SW,214,0.0,4.0,84,0.00,,SKC,0.00,VWS V14.01,2013-01-14 13:41:00,
2013-01-14 07:45:00,6.9,3.1,30.52,SW,214,0.0,4.0,84,0.00,,SKC,0.00,VWS V14.01,2013-01-14 13:45:00,
2013-01-14 07:49:00,6.9,3.1,30.52,SW,214,0.0,4.0,84,0.00,,SKC,0.00,VWS V14.01,2013-01-14 13:49:00,
2013-01-14 07:57:00,6.8,3.0,30.52,SSW,212,0.0,4.0,84,0.00,,SKC,0.00,VWS V14.01,2013-01-14 13:57:00,
2013-01-14 07:59:00,6.7,3.2,30.52,SSW,212,0.0,4.0,85,0.00,,SKC,0.00,VWS V14.01,2013-01-14 13:59:00,
2013-01-14 08:05:00,6.8,3.0,30.52,SW,223,0.0,0.0,84,0.00,,SKC,0.00,VWS V14.01,2013-01-14 14:05:00,
2013-01-14 08:09:00,6.9,3.3,30.52,SSW,211,2.0,3.0,85,0.00,,SKC,0.00,VWS V14.01,2013-01-14 14:09:00,
2013-01-14 08:13:00,7.1,3.5,30.52,SW,214,3.0,4.0,85,0.00,,SKC,0.00,VWS V14.01,2013-01-14 14:13:00,
2013-01-14 08:17:00,7.3,3.8,30.53,SW,214,3.0,4.0,85,0.00,,SKC,0.00,VWS V14.01,2013-01-14 14:17:00,
2013-01-14 08:25:00,7.7,4.1,30.53,SW,214,1.0,4.0,85,0.00,,SKC,0.00,VWS V14.01,2013-01-14 14:25:00,
2013-01-14 08:29:00,8.0,4.4,30.53,WSW,241,2.0,4.0,85,0.00,,SKC,0.00,VWS V14.01,2013-01-14 14:29:00,
2013-01-14 08:33:00,8.2,4.6,30.53,WSW,242,0.0,4.0,85,0.00,,SKC,0.00,VWS V14.01,2013-01-14 14:33:00,
2013-01-14 08:37:00,8.5,4.9,30.53,WSW,241,2.0,5.0,85,0.00,,SKC,0.00,VWS V14.01,2013-01-14 14:37:00,
2013-01-14 08:45:00,8.9,5.1,30.54,SW,231,5.0,6.0,84,0.00,,SKC,0.00,VWS V14.01,2013-01-14 14:45:00,
2013-01-14 08:49:00,9.2,5.4,30.54,West,264,3.0,6.0,84,0.00,,SKC,0.00,VWS V14.01,2013-01-14 14:49:00,
2013-01-14 08:57:00,9.9,6.0,30.54,WSW,244,3.0,6.0,84,0.00,,SKC,0.00,VWS V14.01,2013-01-14 14:57:00,
2013-01-14 08:59:00,10.1,6.2,30.54,West,265,0.0,6.0,84,0.00,,SKC,0.00,VWS V14.01,2013-01-14 14:59:00,
2013-01-14 09:01:00,10.4,6.5,30.54,WSW,242,0.0,0.0,84,0.00,,SKC,0.00,VWS V14.01,2013-01-14 15:01:00,
2013-01-14 09:05:00,10.8,6.9,30.54,WSW,248,2.0,4.0,84,0.00,,SKC,0.00,VWS V14.01,2013-01-14 15:05:00,
2013-01-14 09:13:00,11.5,7.3,30.55,SSW,194,3.0,5.0,83,0.00,,SKC,0.00,VWS V14.01,2013-01-14 15:13:00,
2013-01-14 09:21:00,12.3,8.1,30.55,SSW,211,4.0,5.0,83,0.00,,SKC,0.00,VWS V14.01,2013-01-14 15:21:00,
2013-01-14 09:25:00,12.6,8.2,30.55,SSW,207,4.0,6.0,82,0.00,,SKC,0.00,VWS V14.01,2013-01-14 15:25:00,
2013-01-14 09:29:00,13.0,8.6,30.55,SSW,210,3.0,6.0,82,0.00,,SKC,0.00,VWS V14.01,2013-01-14 15:29:00,
2013-01-14 09:37:00,13.5,8.8,30.54,SW,228,0.0,4.0,81,0.00,,SKC,0.00,VWS V14.01,2013-01-14 15:37:00,
2013-01-14 09:45:00,14.2,9.4,30.55,SW,224,0.0,4.0,81,0.00,,SKC,0.00,VWS V14.01,2013-01-14 15:45:00,
2013-01-14 09:49:00,14.5,9.7,30.55,SSW,209,0.0,4.0,81,0.00,,SKC,0.00,VWS V14.01,2013-01-14 15:49:00,
2013-01-14 09:53:00,14.9,9.9,30.54,SW,234,2.0,4.0,80,0.00,,SKC,0.00,VWS V14.01,2013-01-14 15:53:00,
2013-01-14 09:57:00,15.1,10.1,30.55,SW,217,0.0,5.0,80,0.00,,SKC,0.00,VWS V14.01,2013-01-14 15:57:00,
2013-01-14 09:59:00,15.3,10.2,30.55,SW,220,2.0,5.0,80,0.00,,SKC,0.00,VWS V14.01,2013-01-14 15:59:00,
2013-01-14 10:05:00,15.8,10.7,30.54,South,185,0.0,4.0,80,0.00,,SKC,0.00,VWS V14.01,2013-01-14 16:05:00,
2013-01-14 10:09:00,16.3,11.2,30.54,SSW,194,0.0,4.0,80,0.00,,SKC,0.00,VWS V14.01,2013-01-14 16:09:00,
2013-01-14 10:13:00,16.6,11.5,30.54,SSW,192,4.0,4.0,80,0.00,,SKC,0.00,VWS V14.01,2013-01-14 16:13:00,
2013-01-14 10:17:00,16.8,11.4,30.54,SSW,199,0.0,4.0,79,0.00,,SKC,0.00,VWS V14.01,2013-01-14 16:17:00,
2013-01-14 10:25:00,17.5,12.1,30.54,SSW,211,1.0,4.0,79,0.00,,SKC,0.00,VWS V14.01,2013-01-14 16:25:00,
2013-01-14 10:29:00,17.6,12.2,30.54,SSW,213,1.0,5.0,79,0.00,,SKC,0.00,VWS V14.01,2013-01-14 16:29:00,
2013-01-14 10:33:00,17.9,12.8,30.54,SW,215,0.0,5.0,80,0.00,,SKC,0.00,VWS V14.01,2013-01-14 16:33:00,
2013-01-14 10:37:00,18.1,12.7,30.54,SW,225,2.0,5.0,79,0.00,,SKC,0.00,VWS V14.01,2013-01-14 16:37:00,
2013-01-14 10:41:00,18.4,13.0,30.54,SSW,208,4.0,7.0,79,0.00,,SKC,0.00,VWS V14.01,2013-01-14 16:41:00,
2013-01-14 10:45:00,18.6,13.2,30.54,South,178,4.0,7.0,79,0.00,,SKC,0.00,VWS V14.01,2013-01-14 16:45:00,
2013-01-14 10:49:00,19.2,13.8,30.54,SSE,167,2.0,7.0,79,0.00,,SKC,0.00,VWS V14.01,2013-01-14 16:49:00,
2013-01-14 10:57:00,20.2,14.2,30.53,South,177,3.0,7.0,77,0.00,,SKC,0.00,VWS V14.01,2013-01-14 16:57:00,
2013-01-14 11:01:00,20.7,14.6,30.53,SSW,206,7.0,7.0,77,0.00,,SKC,0.00,VWS V14.01,2013-01-14 17:01:00,
2013-01-14 11:09:00,21.3,14.3,30.53,SSW,211,8.0,8.0,74,0.00,,SKC,0.00,VWS V14.01,2013-01-14 17:09:00,
2013-01-14 11:17:00,21.7,14.4,30.53,SSW,197,7.0,11.0,73,0.00,,SKC,0.00,VWS V14.01,2013-01-14 17:17:00,
2013-01-14 11:26:00,22.2,14.6,30.53,SSW,213,6.0,11.0,72,0.00,,SKC,0.00,VWS V14.01,2013-01-14 17:26:00,
2013-01-14 11:30:00,22.4,14.8,30.53,SW,219,4.0,7.0,72,0.00,,SKC,0.00,VWS V14.01,2013-01-14 17:30:00,
2013-01-14 11:38:00,22.9,14.9,30.52,SSW,210,9.0,11.0,71,0.00,,SKC,0.00,VWS V14.01,2013-01-14 17:38:00,
2013-01-14 11:42:00,23.1,14.5,30.51,WSW,253,5.0,11.0,69,0.00,,SKC,0.00,VWS V14.01,2013-01-14 17:42:00,
2013-01-14 11:46:00,22.8,14.2,30.50,SW,214,4.0,11.0,69,0.00,,SKC,0.00,VWS V14.01,2013-01-14 17:46:00,
2013-01-14 11:50:00,22.9,13.9,30.50,SW,229,8.0,11.0,68,0.00,,SKC,0.00,VWS V14.01,2013-01-14 17:50:00,
2013-01-14 11:54:00,23.0,14.7,30.50,SW,221,2.0,11.0,70,0.00,,SKC,0.00,VWS V14.01,2013-01-14 17:54:00,
2013-01-14 11:59:00,23.5,14.2,30.49,SW,221,4.0,11.0,67,0.00,,SKC,0.00,VWS V14.01,2013-01-14 17:59:00,
2013-01-14 12:02:00,23.6,14.3,30.49,SSW,202,3.0,8.0,67,0.00,,SKC,0.00,VWS V14.01,2013-01-14 18:02:00,
2013-01-14 12:06:00,23.9,14.2,30.49,WSW,248,7.0,9.0,66,0.00,,SKC,0.00,VWS V14.01,2013-01-14 18:06:00,
2013-01-14 12:10:00,23.9,13.5,30.49,WSW,252,7.0,10.0,64,0.00,,SKC,0.00,VWS V14.01,2013-01-14 18:10:00,
2013-01-14 12:18:00,24.0,13.6,30.48,WSW,250,4.0,10.0,64,0.00,,SKC,0.00,VWS V14.01,2013-01-14 18:18:00,
2013-01-14 12:22:00,24.3,13.5,30.48,WSW,250,9.0,10.0,63,0.00,,SKC,0.00,VWS V14.01,2013-01-14 18:22:00,
2013-01-14 12:26:00,24.3,13.2,30.48,SSW,198,3.0,10.0,62,0.00,,SKC,0.00,VWS V14.01,2013-01-14 18:26:00,
2013-01-14 12:29:00,24.6,13.4,30.48,WSW,250,4.0,10.0,62,0.00,,SKC,0.00,VWS V14.01,2013-01-14 18:29:00,
2013-01-14 12:30:00,24.6,13.4,30.47,SSW,211,4.0,4.0,62,0.00,,SKC,0.00,VWS V14.01,2013-01-14 18:30:00,
2013-01-14 12:34:00,24.9,13.7,30.47,West,264,4.0,9.0,62,0.00,,SKC,0.00,VWS V14.01,2013-01-14 18:34:00,
2013-01-14 12:38:00,25.2,14.0,30.47,SSW,197,4.0,9.0,62,0.00,,SKC,0.00,VWS V14.01,2013-01-14 18:38:00,
2013-01-14 12:42:00,25.3,13.4,30.47,SW,222,5.0,9.0,60,0.00,,SKC,0.00,VWS V14.01,2013-01-14 18:42:00,
2013-01-14 12:46:00,25.3,13.0,30.47,SSW,209,1.0,10.0,59,0.00,,SKC,0.00,VWS V14.01,2013-01-14 18:46:00,
2013-01-14 12:50:00,25.3,13.0,30.46,WSW,239,9.0,10.0,59,0.00,,SKC,0.00,VWS V14.01,2013-01-14 18:50:00,
2013-01-14 12:54:00,25.8,13.5,30.46,SW,219,0.0,10.0,59,0.00,,SKC,0.00,VWS V14.01,2013-01-14 18:54:00,
2013-01-14 12:58:00,25.8,13.5,30.46,WSW,242,8.0,10.0,59,0.00,,SKC,0.00,VWS V14.01,2013-01-14 18:58:00,
2013-01-14 12:59:00,25.8,13.5,30.46,SSW,205,6.0,10.0,59,0.00,,SKC,0.00,VWS V14.01,2013-01-14 18:59:00,
2013-01-14 13:02:00,25.8,13.9,30.46,WSW,250,4.0,8.0,60,0.00,,SKC,0.00,VWS V14.01,2013-01-14 19:02:00,
2013-01-14 13:06:00,25.9,13.6,30.46,SW,223,4.0,8.0,59,0.00,,SKC,0.00,VWS V14.01,2013-01-14 19:06:00,
2013-01-14 13:10:00,26.1,13.4,30.45,WSW,241,5.0,11.0,58,0.00,,SKC,0.00,VWS V14.01,2013-01-14 19:10:00,
2013-01-14 13:14:00,25.8,13.1,30.45,SW,236,6.0,11.0,58,0.00,,SKC,0.00,VWS V14.01,2013-01-14 19:14:00,
2013-01-14 13:18:00,26.2,13.8,30.45,SW,236,4.0,11.0,59,0.00,,SKC,0.00,VWS V14.01,2013-01-14 19:18:00,
2013-01-14 13:22:00,26.2,13.4,30.44,West,260,3.0,11.0,58,0.00,,SKC,0.00,VWS V14.01,2013-01-14 19:22:00,
2013-01-14 13:26:00,26.4,13.6,30.44,SW,215,4.0,11.0,58,0.00,,SKC,0.00,VWS V14.01,2013-01-14 19:26:00,
2013-01-14 13:34:00,27.0,14.6,30.44,SW,217,2.0,8.0,59,0.00,,SKC,0.00,VWS V14.01,2013-01-14 19:34:00,
2013-01-14 13:38:00,27.0,13.4,30.44,WSW,248,10.0,10.0,56,0.00,,SKC,0.00,VWS V14.01,2013-01-14 19:38:00,
2013-01-14 13:42:00,26.9,13.3,30.44,WSW,239,4.0,10.0,56,0.00,,SKC,0.00,VWS V14.01,2013-01-14 19:42:00,
2013-01-14 13:50:00,27.3,13.7,30.44,WSW,248,5.0,15.0,56,0.00,,SKC,0.00,VWS V14.01,2013-01-14 19:50:00,
2013-01-14 13:54:00,27.4,13.8,30.44,SSW,210,7.0,15.0,56,0.00,,SKC,0.00,VWS V14.01,2013-01-14 19:54:00,
2013-01-14 13:58:00,27.4,13.0,30.44,SW,228,4.0,15.0,54,0.00,,SKC,0.00,VWS V14.01,2013-01-14 19:58:00,
2013-01-14 13:59:00,27.3,12.9,30.44,SW,236,6.0,15.0,54,0.00,,SKC,0.00,VWS V14.01,2013-01-14 19:59:00,
2013-01-14 14:02:00,27.3,12.4,30.44,SSW,203,4.0,10.0,53,0.00,,SKC,0.00,VWS V14.01,2013-01-14 20:02:00,
2013-01-14 14:06:00,27.4,12.5,30.43,WSW,238,2.0,10.0,53,0.00,,SKC,0.00,VWS V14.01,2013-01-14 20:06:00,
2013-01-14 14:10:00,27.5,13.1,30.44,SW,232,2.0,10.0,54,0.00,,SKC,0.00,VWS V14.01,2013-01-14 20:10:00,
2013-01-14 14:14:00,27.5,13.1,30.44,WSW,250,10.0,11.0,54,0.00,,SKC,0.00,VWS V14.01,2013-01-14 20:14:00,
2013-01-14 14:18:00,27.4,12.5,30.43,West,259,7.0,11.0,53,0.00,,SKC,0.00,VWS V14.01,2013-01-14 20:18:00,
2013-01-14 14:22:00,27.4,12.1,30.43,WSW,247,9.0,11.0,52,0.00,,SKC,0.00,VWS V14.01,2013-01-14 20:22:00,
2013-01-14 14:26:00,27.5,12.2,30.44,WSW,244,8.0,12.0,52,0.00,,SKC,0.00,VWS V14.01,2013-01-14 20:26:00,
2013-01-14 14:30:00,27.3,12.4,30.44,WSW,245,5.0,7.0,53,0.00,,SKC,0.00,VWS V14.01,2013-01-14 20:30:00,
2013-01-14 14:34:00,27.2,11.9,30.43,WSW,243,6.0,10.0,52,0.00,,SKC,0.00,VWS V14.01,2013-01-14 20:34:00,
2013-01-14 14:38:00,27.4,12.5,30.43,WSW,244,6.0,10.0,53,0.00,,SKC,0.00,VWS V14.01,2013-01-14 20:38:00,
2013-01-14 14:42:00,27.3,12.0,30.44,SW,235,4.0,10.0,52,0.00,,SKC,0.00,VWS V14.01,2013-01-14 20:42:00,
2013-01-14 14:46:00,27.5,13.1,30.44,West,264,7.0,11.0,54,0.00,,SKC,0.00,VWS V14.01,2013-01-14 20:46:00,
2013-01-14 14:50:00,27.4,12.1,30.44,West,264,7.0,11.0,52,0.00,,SKC,0.00,VWS V14.01,2013-01-14 20:50:00,
2013-01-14 14:58:00,27.5,12.6,30.44,West,266,4.0,11.0,53,0.00,,SKC,0.00,VWS V14.01,2013-01-14 20:58:00,
2013-01-14 14:59:00,27.6,13.1,30.44,West,262,5.0,11.0,54,0.00,,SKC,0.00,VWS V14.01,2013-01-14 20:59:00,
2013-01-14 15:06:00,27.6,12.7,30.43,WNW,285,0.0,8.0,53,0.00,,SKC,0.00,VWS V14.01,2013-01-14 21:06:00,
2013-01-14 15:10:00,27.7,12.4,30.43,WSW,258,4.0,8.0,52,0.00,,SKC,0.00,VWS V14.01,2013-01-14 21:10:00,
2013-01-14 15:18:00,27.8,12.5,30.43,West,276,5.0,9.0,52,0.00,,SKC,0.00,VWS V14.01,2013-01-14 21:18:00,
2013-01-14 15:22:00,27.7,12.4,30.43,West,279,3.0,9.0,52,0.00,,SKC,0.00,VWS V14.01,2013-01-14 21:22:00,
2013-01-14 15:26:00,27.7,12.4,30.43,SW,232,4.0,9.0,52,0.00,,SKC,0.00,VWS V14.01,2013-01-14 21:26:00,
2013-01-14 15:29:00,27.8,12.5,30.43,SW,236,0.0,9.0,52,0.00,,SKC,0.00,VWS V14.01,2013-01-14 21:29:00,
2013-01-14 15:38:00,27.9,12.1,30.43,WSW,244,5.0,6.0,51,0.00,,SKC,0.00,VWS V14.01,2013-01-14 21:38:00,
2013-01-14 15:42:00,27.8,12.5,30.43,West,273,4.0,7.0,52,0.00,,SKC,0.00,VWS V14.01,2013-01-14 21:42:00,
2013-01-14 15:50:00,27.4,12.5,30.43,WNW,294,2.0,7.0,53,0.00,,SKC,0.00,VWS V14.01,2013-01-14 21:50:00,
2013-01-14 15:54:00,27.4,12.1,30.43,WNW,288,2.0,7.0,52,0.00,,SKC,0.00,VWS V14.01,2013-01-14 21:54:00,
2013-01-14 15:58:00,27.3,12.4,30.44,WSW,238,4.0,8.0,53,0.00,,SKC,0.00,VWS V14.01,2013-01-14 21:58:00,
2013-01-14 15:59:00,27.3,12.4,30.44,WSW,237,1.0,8.0,53,0.00,,SKC,0.00,VWS V14.01,2013-01-14 21:59:00,
2013-01-14 16:02:00,27.4,12.1,30.44,West,259,4.0,4.0,52,0.00,,SKC,0.00,VWS V14.01,2013-01-14 22:02:00,
2013-01-14 16:06:00,27.2,12.4,30.44,WSW,248,3.0,6.0,53,0.00,,SKC,0.00,VWS V14.01,2013-01-14 22:06:00,
2013-01-14 16:14:00,27.1,12.2,30.44,WSW,243,1.0,6.0,53,0.00,,SKC,0.00,VWS V14.01,2013-01-14 22:14:00,
2013-01-14 16:18:00,27.1,12.7,30.44,West,269,4.0,6.0,54,0.00,,SKC,0.00,VWS V14.01,2013-01-14 22:18:00,
2013-01-14 16:22:00,27.1,12.7,30.44,WSW,250,3.0,6.0,54,0.00,,SKC,0.00,VWS V14.01,2013-01-14 22:22:00,
2013-01-14 16:29:00,27.0,12.6,30.43,WSW,257,3.0,6.0,54,0.00,,SKC,0.00,VWS V14.01,2013-01-14 22:29:00,
2013-01-14 16:34:00,26.9,12.5,30.43,WSW,255,2.0,6.0,54,0.00,,SKC,0.00,VWS V14.01,2013-01-14 22:34:00,
2013-01-14 16:42:00,27.0,13.0,30.43,SW,223,0.0,6.0,55,0.00,,SKC,0.00,VWS V14.01,2013-01-14 22:42:00,
2013-01-14 16:46:00,27.1,13.1,30.43,SW,225,1.0,6.0,55,0.00,,SKC,0.00,VWS V14.01,2013-01-14 22:46:00,
2013-01-14 16:54:00,26.7,13.1,30.43,SW,225,0.0,6.0,56,0.00,,SKC,0.00,VWS V14.01,2013-01-14 22:54:00,
2013-01-14 16:58:00,26.4,13.2,30.43,SW,227,0.0,6.0,57,0.00,,SKC,0.00,VWS V14.01,2013-01-14 22:58:00,
2013-01-14 16:59:00,26.3,13.1,30.43,SW,227,0.0,6.0,57,0.00,,SKC,0.00,VWS V14.01,2013-01-14 22:59:00,
2013-01-14 17:02:00,25.8,12.7,30.44,WSW,237,2.0,4.0,57,0.00,,SKC,0.00,VWS V14.01,2013-01-14 23:02:00,
2013-01-14 17:06:00,25.5,12.8,30.43,WSW,249,0.0,4.0,58,0.00,,SKC,0.00,VWS V14.01,2013-01-14 23:06:00,
2013-01-14 17:10:00,25.2,12.5,30.43,SW,234,0.0,4.0,58,0.00,,SKC,0.00,VWS V14.01,2013-01-14 23:10:00,
2013-01-14 17:14:00,24.9,12.6,30.43,SW,234,0.0,4.0,59,0.00,,SKC,0.00,VWS V14.01,2013-01-14 23:14:00,
2013-01-14 17:18:00,24.7,12.4,30.43,SW,234,0.0,4.0,59,0.00,,SKC,0.00,VWS V14.01,2013-01-14 23:18:00,
2013-01-14 17:22:00,24.6,12.3,30.43,SW,234,0.0,4.0,59,0.00,,SKC,0.00,VWS V14.01,2013-01-14 23:22:00,
2013-01-14 17:29:00,24.6,12.3,30.43,SW,234,0.0,4.0,59,0.00,,SKC,0.00,VWS V14.01,2013-01-14 23:29:00,
2013-01-14 17:30:00,24.6,12.3,30.43,SW,234,0.0,0.0,59,0.00,,SKC,0.00,VWS V14.01,2013-01-14 23:30:00,
2013-01-14 17:34:00,24.6,12.3,30.43,SW,234,0.0,0.0,59,0.00,,SKC,0.00,VWS V14.01,2013-01-14 23:34:00,
2013-01-14 17:38:00,24.5,12.2,30.43,SW,234,0.0,0.0,59,0.00,,SKC,0.00,VWS V14.01,2013-01-14 23:38:00,
2013-01-14 17:46:00,24.5,12.2,30.44,SW,234,0.0,0.0,59,0.00,,SKC,0.00,VWS V14.01,2013-01-14 23:46:00,
2013-01-14 17:50:00,24.5,12.2,30.44,SW,234,0.0,0.0,59,0.00,,SKC,0.00,VWS V14.01,2013-01-14 23:50:00,
2013-01-14 17:58:00,24.5,12.2,30.44,SW,234,0.0,0.0,59,0.00,,SKC,0.00,VWS V14.01,2013-01-14 23:58:00,
2013-01-14 17:59:00,24.5,12.2,30.44,SW,234,0.0,0.0,59,0.00,,SKC,0.00,VWS V14.01,2013-01-14 23:59:00,
2013-01-14 18:02:00,24.5,11.9,30.44,SW,234,0.0,0.0,58,0.00,,SKC,0.00,VWS V14.01,2013-01-15 00:02:00,
2013-01-14 18:06:00,24.5,12.2,30.44,SW,234,0.0,0.0,59,0.00,,SKC,0.00,VWS V14.01,2013-01-15 00:06:00,
2013-01-14 18:10:00,24.4,12.1,30.44,SW,234,0.0,0.0,59,0.00,,SKC,0.00,VWS V14.01,2013-01-15 00:10:00,
2013-01-14 18:14:00,24.3,12.1,30.44,SW,234,0.0,0.0,59,0.00,,SKC,0.00,VWS V14.01,2013-01-15 00:14:00,
2013-01-14 18:22:00,23.9,12.1,30.44,SW,234,0.0,0.0,60,0.00,,SKC,0.00,VWS V14.01,2013-01-15 00:22:00,
2013-01-14 18:26:00,23.5,12.0,30.44,SW,234,0.0,0.0,61,0.00,,SKC,0.00,VWS V14.01,2013-01-15 00:26:00,
2013-01-14 18:29:00,23.1,12.4,30.44,SW,234,0.0,0.0,63,0.00,,SKC,0.00,VWS V14.01,2013-01-15 00:29:00,
2013-01-14 18:30:00,23.0,12.6,30.44,SW,234,0.0,0.0,64,0.00,,SKC,0.00,VWS V14.01,2013-01-15 00:30:00,
2013-01-14 18:34:00,22.4,12.8,30.44,SW,234,0.0,0.0,66,0.00,,SKC,0.00,VWS V14.01,2013-01-15 00:34:00,
2013-01-14 18:38:00,22.2,12.6,30.45,SW,234,0.0,0.0,66,0.00,,SKC,0.00,VWS V14.01,2013-01-15 00:38:00,
2013-01-14 18:46:00,22.3,12.3,30.44,SW,234,0.0,0.0,65,0.00,,SKC,0.00,VWS V14.01,2013-01-15 00:46:00,
2013-01-14 18:50:00,22.4,12.4,30.44,SW,234,0.0,0.0,65,0.00,,SKC,0.00,VWS V14.01,2013-01-15 00:50:00,
2013-01-14 18:58:00,22.3,12.3,30.45,SW,234,0.0,0.0,65,0.00,,SKC,0.00,VWS V14.01,2013-01-15 00:58:00,
2013-01-14 19:03:00,22.2,12.2,30.45,SW,234,0.0,0.0,65,0.00,,SKC,0.00,VWS V14.01,2013-01-15 01:03:00,
2013-01-14 19:11:00,22.0,12.4,30.44,SW,234,0.0,0.0,66,0.00,,SKC,0.00,VWS V14.01,2013-01-15 01:11:00,
2013-01-14 19:15:00,21.9,12.3,30.44,SW,234,0.0,0.0,66,0.00,,SKC,0.00,VWS V14.01,2013-01-15 01:15:00,
2013-01-14 19:19:00,21.8,12.2,30.44,SW,234,0.0,0.0,66,0.00,,SKC,0.00,VWS V14.01,2013-01-15 01:19:00,
2013-01-14 19:23:00,21.8,12.5,30.44,SW,234,0.0,0.0,67,0.00,,SKC,0.00,VWS V14.01,2013-01-15 01:23:00,
2013-01-14 19:27:00,21.7,12.4,30.44,SW,234,0.0,0.0,67,0.00,,SKC,0.00,VWS V14.01,2013-01-15 01:27:00,
2013-01-14 19:31:00,21.7,12.4,30.44,SW,234,0.0,0.0,67,0.00,,SKC,0.00,VWS V14.01,2013-01-15 01:31:00,
2013-01-14 19:35:00,21.7,12.4,30.44,SW,234,0.0,0.0,67,0.00,,SKC,0.00,VWS V14.01,2013-01-15 01:35:00,
2013-01-14 19:39:00,21.6,12.4,30.44,SW,234,0.0,0.0,67,0.00,,SKC,0.00,VWS V14.01,2013-01-15 01:39:00,
2013-01-14 19:43:00,21.5,12.3,30.44,SW,234,0.0,0.0,67,0.00,,SKC,0.00,VWS V14.01,2013-01-15 01:43:00,
2013-01-14 19:51:00,21.1,12.2,30.44,SW,234,0.0,0.0,68,0.00,,SKC,0.00,VWS V14.01,2013-01-15 01:51:00,
2013-01-14 19:55:00,20.9,12.4,30.44,SW,234,0.0,0.0,69,0.00,,SKC,0.00,VWS V14.01,2013-01-15 01:55:00,
2013-01-14 19:59:00,20.8,12.2,30.44,SW,234,0.0,0.0,69,0.00,,SKC,0.00,VWS V14.01,2013-01-15 01:59:00,
2013-01-14 20:03:00,20.6,12.1,30.44,SW,234,0.0,0.0,69,0.00,,SKC,0.00,VWS V14.01,2013-01-15 02:03:00,
2013-01-14 20:07:00,20.6,12.1,30.44,SW,234,0.0,0.0,69,0.00,,SKC,0.00,VWS V14.01,2013-01-15 02:07:00,
2013-01-14 20:15:00,20.4,12.2,30.44,SW,234,0.0,0.0,70,0.00,,SKC,0.00,VWS V14.01,2013-01-15 02:15:00,
2013-01-14 20:19:00,20.3,12.1,30.45,SW,234,0.0,0.0,70,0.00,,SKC,0.00,VWS V14.01,2013-01-15 02:19:00,
2013-01-14 20:23:00,20.2,12.0,30.45,SW,234,0.0,0.0,70,0.00,,SKC,0.00,VWS V14.01,2013-01-15 02:23:00,
2013-01-14 20:29:00,20.0,12.1,30.44,SW,234,0.0,0.0,71,0.00,,SKC,0.00,VWS V14.01,2013-01-15 02:29:00,
2013-01-14 20:31:00,19.9,12.0,30.44,SW,234,0.0,0.0,71,0.00,,SKC,0.00,VWS V14.01,2013-01-15 02:31:00,
2013-01-14 20:35:00,19.8,11.9,30.44,SW,234,0.0,0.0,71,0.00,,SKC,0.00,VWS V14.01,2013-01-15 02:35:00,
2013-01-14 20:43:00,19.4,11.9,30.44,SW,234,0.0,0.0,72,0.00,,SKC,0.00,VWS V14.01,2013-01-15 02:43:00,
2013-01-14 20:47:00,19.1,11.6,30.44,SW,234,0.0,0.0,72,0.00,,SKC,0.00,VWS V14.01,2013-01-15 02:47:00,
2013-01-14 20:51:00,19.0,11.8,30.44,SW,234,0.0,0.0,73,0.00,,SKC,0.00,VWS V14.01,2013-01-15 02:51:00,
2013-01-14 20:55:00,19.0,11.8,30.43,SW,234,0.0,0.0,73,0.00,,SKC,0.00,VWS V14.01,2013-01-15 02:55:00,
2013-01-14 20:59:00,19.0,11.8,30.43,SW,234,0.0,0.0,73,0.00,,SKC,0.00,VWS V14.01,2013-01-15 02:59:00,
2013-01-14 21:03:00,19.0,11.8,30.44,SW,234,0.0,0.0,73,0.00,,SKC,0.00,VWS V14.01,2013-01-15 03:03:00,
2013-01-14 21:07:00,19.0,11.8,30.44,SW,234,0.0,0.0,73,0.00,,SKC,0.00,VWS V14.01,2013-01-15 03:07:00,
2013-01-14 21:15:00,19.1,11.9,30.43,SW,234,0.0,0.0,73,0.00,,SKC,0.00,VWS V14.01,2013-01-15 03:15:00,
2013-01-14 21:23:00,18.9,11.7,30.43,SW,234,0.0,0.0,73,0.00,,SKC,0.00,VWS V14.01,2013-01-15 03:23:00,
2013-01-14 21:27:00,18.7,11.8,30.43,SW,234,0.0,0.0,74,0.00,,SKC,0.00,VWS V14.01,2013-01-15 03:27:00,
2013-01-14 21:29:00,18.5,11.6,30.43,SW,234,0.0,0.0,74,0.00,,SKC,0.00,VWS V14.01,2013-01-15 03:29:00,
2013-01-14 21:31:00,18.4,11.5,30.43,SW,234,0.0,0.0,74,0.00,,SKC,0.00,VWS V14.01,2013-01-15 03:31:00,
2013-01-14 21:39:00,17.3,11.1,30.43,SW,234,0.0,0.0,76,0.00,,SKC,0.00,VWS V14.01,2013-01-15 03:39:00,
2013-01-14 21:47:00,16.6,11.2,30.43,SW,234,0.0,0.0,79,0.00,,SKC,0.00,VWS V14.01,2013-01-15 03:47:00,
2013-01-14 21:51:00,16.5,11.1,30.43,SW,234,0.0,0.0,79,0.00,,SKC,0.00,VWS V14.01,2013-01-15 03:51:00,
2013-01-14 21:55:00,16.3,11.2,30.43,SW,234,0.0,0.0,80,0.00,,SKC,0.00,VWS V14.01,2013-01-15 03:55:00,
2013-01-14 21:59:00,16.1,11.0,30.43,SW,234,0.0,0.0,80,0.00,,SKC,0.00,VWS V14.01,2013-01-15 03:59:00,
2013-01-14 22:07:00,16.1,11.6,30.43,SW,234,0.0,0.0,82,0.00,,SKC,0.00,VWS V14.01,2013-01-15 04:07:00,
2013-01-14 22:11:00,16.1,11.6,30.43,SW,234,0.0,0.0,82,0.00,,SKC,0.00,VWS V14.01,2013-01-15 04:11:00,
2013-01-14 22:19:00,16.4,11.9,30.43,SW,234,0.0,0.0,82,0.00,,SKC,0.00,VWS V14.01,2013-01-15 04:19:00,
2013-01-14 22:23:00,16.6,11.8,30.43,SW,234,0.0,0.0,81,0.00,,SKC,0.00,VWS V14.01,2013-01-15 04:23:00,
2013-01-14 22:27:00,16.7,11.6,30.43,SW,234,0.0,0.0,80,0.00,,SKC,0.00,VWS V14.01,2013-01-15 04:27:00,
2013-01-14 22:29:00,16.7,11.6,30.43,SW,234,0.0,0.0,80,0.00,,SKC,0.00,VWS V14.01,2013-01-15 04:29:00,
2013-01-14 22:31:00,16.7,11.6,30.43,SW,234,0.0,0.0,80,0.00,,SKC,0.00,VWS V14.01,2013-01-15 04:31:00,
2013-01-14 22:35:00,16.8,11.4,30.43,SW,234,0.0,0.0,79,0.00,,SKC,0.00,VWS V14.01,2013-01-15 04:35:00,
2013-01-14 22:43:00,16.7,11.3,30.43,SW,234,0.0,0.0,79,0.00,,SKC,0.00,VWS V14.01,2013-01-15 04:43:00,
2013-01-14 22:47:00,16.7,11.3,30.43,SW,234,0.0,0.0,79,0.00,,SKC,0.00,VWS V14.01,2013-01-15 04:47:00,
2013-01-14 22:55:00,16.7,11.3,30.43,SW,234,0.0,0.0,79,0.00,,SKC,0.00,VWS V14.01,2013-01-15 04:55:00,
2013-01-14 22:59:00,16.7,11.3,30.43,SW,234,0.0,0.0,79,0.00,,SKC,0.00,VWS V14.01,2013-01-15 04:59:00,
2013-01-14 23:03:00,16.7,11.3,30.43,SW,234,0.0,0.0,79,0.00,,SKC,0.00,VWS V14.01,2013-01-15 05:03:00,
2013-01-14 23:07:00,16.6,11.2,30.43,SW,234,0.0,0.0,79,0.00,,SKC,0.00,VWS V14.01,2013-01-15 05:07:00,
2013-01-14 23:15:00,15.8,10.5,30.43,SW,234,0.0,0.0,79,0.00,,SKC,0.00,VWS V14.01,2013-01-15 05:15:00,
2013-01-14 23:23:00,15.2,10.4,30.43,SW,234,0.0,0.0,81,0.00,,SKC,0.00,VWS V14.01,2013-01-15 05:23:00,
2013-01-14 23:27:00,15.2,10.7,30.42,SW,234,0.0,0.0,82,0.00,,SKC,0.00,VWS V14.01,2013-01-15 05:27:00,
2013-01-14 23:29:00,15.4,10.9,30.42,SW,234,0.0,0.0,82,0.00,,SKC,0.00,VWS V14.01,2013-01-15 05:29:00,
2013-01-14 23:31:00,15.5,11.0,30.43,SW,234,0.0,0.0,82,0.00,,SKC,0.00,VWS V14.01,2013-01-15 05:31:00,
2013-01-14 23:35:00,15.8,11.0,30.42,SW,234,0.0,0.0,81,0.00,,SKC,0.00,VWS V14.01,2013-01-15 05:35:00,
2013-01-14 23:39:00,16.0,11.2,30.42,SW,234,0.0,0.0,81,0.00,,SKC,0.00,VWS V14.01,2013-01-15 05:39:00,
2013-01-14 23:43:00,16.0,10.9,30.42,SW,234,0.0,0.0,80,0.00,,SKC,0.00,VWS V14.01,2013-01-15 05:43:00,
2013-01-14 23:51:00,15.6,10.5,30.43,SSW,211,3.0,4.0,80,0.00,,SKC,0.00,VWS V14.01,2013-01-15 05:51:00,
2013-01-14 23:55:00,15.4,10.4,30.42,SSW,211,3.0,4.0,80,0.00,,SKC,0.00,VWS V14.01,2013-01-15 05:55:00,
2013-01-14 23:59:00,15.0,9.7,30.42,SSW,211,1.0,4.0,79,0.00,,SKC,0.00,VWS V14.01,2013-01-15 05:59:00,